This is the latest recevied weather packets stored in our database for station/object HB9CJD-1. If no packets are shown the sender has not sent any weather packets the latest 10 day(s).
| Time | Temp. | Humidity | Pressure | Rain* | Wind** | Luminosity | Snow |
|---|---|---|---|---|---|---|---|
| 1777957146 | 11.67° C | 78% | 1012.7 hPa | - | - | - | - |
| 1777957146 | 11.67° C | 78% | 1012.7 hPa | - | - | - | - |
| 1777956543 | 11.67° C | 78% | 1012.7 hPa | - | - | - | - |
| 1777956543 | 11.67° C | 78% | 1012.7 hPa | - | - | - | - |
| 1777955940 | 11.67° C | 77% | 1012.9 hPa | - | - | - | - |
| 1777955940 | 11.67° C | 77% | 1012.9 hPa | - | - | - | - |
| 1777955336 | 11.67° C | 81% | 1013 hPa | - | - | - | - |
| 1777955336 | 11.67° C | 81% | 1013 hPa | - | - | - | - |
| 1777954733 | 11.67° C | 79% | 1012.9 hPa | - | - | - | - |
| 1777954733 | 11.67° C | 79% | 1012.9 hPa | - | - | - | - |
| 1777954130 | 11.67° C | 77% | 1012.8 hPa | - | - | - | - |
| 1777954130 | 11.67° C | 77% | 1012.8 hPa | - | - | - | - |
| 1777953527 | 11.67° C | 78% | 1012.9 hPa | - | - | - | - |
| 1777953526 | 11.67° C | 78% | 1012.9 hPa | - | - | - | - |
| 1777952923 | 11.67° C | 80% | 1012.9 hPa | - | - | - | - |
| 1777952923 | 11.67° C | 80% | 1012.9 hPa | - | - | - | - |
| 1777952320 | 11.67° C | 76% | 1013 hPa | - | - | - | - |
| 1777952320 | 11.67° C | 76% | 1013 hPa | - | - | - | - |
| 1777951717 | 11.67° C | 77% | 1012.9 hPa | - | - | - | - |
| 1777951717 | 11.67° C | 77% | 1012.9 hPa | - | - | - | - |
| 1777951114 | 11.67° C | 79% | 1013.2 hPa | - | - | - | - |
| 1777951114 | 11.67° C | 79% | 1013.2 hPa | - | - | - | - |
| 1777950510 | 11.67° C | 78% | 1013.3 hPa | - | - | - | - |
| 1777950510 | 11.67° C | 78% | 1013.3 hPa | - | - | - | - |
| 1777949907 | 11.67° C | 76% | 1013.3 hPa | - | - | - | - |
* Rain since midnight (hover to see other rain measurements)
** Current wind speed in m/s (hover to see current wind gust speed)